Torna al catalogo

CZ-6A DEB

AttivoPO
NORAD 61094·DEBRIS·🇨🇳 China

Lanciato Aug 6, 2024 da Taiyuan Satellite Launch Center

Loading…

Prossimi Passaggi (prossime 24 ore)

TLE

AggiornatoSource: Space-Track

Epoca: Sep 13, 2026, 11:44 UTC

1 61094U 24140NL  26256.48905408  .00000198  00000-0  90504-4 0  9990
2 61094  89.0045 265.9631 0053616 260.3870  99.1259 14.17159460105635

Traccia CZ-6A DEB in tempo reale con AllMySat

Download on the App Store